Location: San Pelegr�n
(42.1868°N, 0.0079°E)
Time: 14:42:59
(UTC+00:00)

Cosmos 2219 Rocket - Pass Details

Date: 24 January 2020
Orbit: 827 x 848 km, 71.0° (Epoch: 22 February)

Event Time Altitude Azimuth Distance (km) Brightness Sun altitude
Rises 17:45:00 0° 326° (NNW) 3,417 5.6 -8.0°
Reaches altitude 10° 17:47:40 10° 317° (NW) 2,475 5.0 -8.4°
Maximum altitude 17:52:39 33° 256° (WSW) 1,399 4.3 -9.3°
Drops below altitude 10° 17:57:36 10° 194° (SSW) 2,451 5.1 -10.2°
Sets 18:00:14 0° 185° (S) 3,377 5.6 -10.7°
